^^
Your Local Weather - Clay, NY Station Historical Data
Daily Summary for February 25, 2018 Units:  Metric    English   Both
« Previous Day
Next Day »
Daily Weekly Monthly Yearly Custom
  High: Low: Average:
Temperature: 9.6 °C 0.7 °C 4.1 °C
Dew Point: 7.7 °C -1.4 °C 2.2 °C
Humidity: 93% 72% 87%
Wind Speed: 12.9km/h 0km/h 4.2km/h
Wind Gust: 27.4km/h - -
Wind- - ESE
Pressure: 1020.2 hPa 1008 hPa -
Precipitation: 9.65 mm    
Historical Graphs
 
 
Tabular Data for February 25, 2018
Time Temperature Dew Point Pressure Wind Wind Speed Wind Gust Humidity Rainfall Rate (Hourly) solar
00:04 0.7 °C -1.3 °C 1020.2 hPa ENE 1.6 km/h 4.8 km/h 86% 0 mm 0 W/m2
00:10 0.8 °C -1.3 °C 1019.9 hPa ENE 1.6 km/h 1.6 km/h 86% 0 mm 0 W/m2
00:16 0.8 °C -1.4 °C 1019.9 hPa ENE 1.6 km/h 3.2 km/h 85% 0 mm 0 W/m2
00:22 0.9 °C -1.3 °C 1020.2 hPa East 1.6 km/h 4.8 km/h 85% 0 mm 0 W/m2
00:28 0.9 °C -1.3 °C 1019.9 hPa East 1.6 km/h 4.8 km/h 85% 0 mm 0 W/m2
00:34 1 °C -1.4 °C 1020.2 hPa East 1.6 km/h 3.2 km/h 84% 0 mm 0 W/m2
00:40 1.1 °C -1.3 °C 1020.2 hPa ENE 3.2 km/h 3.2 km/h 84% 0 mm 0 W/m2
00:46 1.1 °C -1.3 °C 1020.2 hPa ENE 1.6 km/h 3.2 km/h 84% 0 mm 0 W/m2
00:52 1.1 °C -1.3 °C 1020.2 hPa ENE 1.6 km/h 3.2 km/h 84% 0 mm 0 W/m2
00:58 1.1 °C -1.3 °C 1019.9 hPa East 3.2 km/h 9.7 km/h 84% 0 mm 0 W/m2
01:04 1.1 °C -1.3 °C 1019.9 hPa NE 4.8 km/h 6.4 km/h 84% 0 mm 0 W/m2
01:10 1.1 °C -1.4 °C 1019.5 hPa ENE 3.2 km/h 4.8 km/h 83% 0 mm 0 W/m2
01:16 1.1 °C -1.4 °C 1019.2 hPa NE 3.2 km/h 4.8 km/h 83% 0 mm 0 W/m2
01:22 1.1 °C -1.4 °C 1019.2 hPa ENE 3.2 km/h 4.8 km/h 83% 0 mm 0 W/m2
01:28 1.2 °C -1.4 °C 1019.2 hPa ENE 3.2 km/h 4.8 km/h 83% 0 mm 0 W/m2
01:34 1.2 °C -1.4 °C 1019.2 hPa East 3.2 km/h 12.9 km/h 83% 0 mm 0 W/m2
01:40 1.2 °C -1.3 °C 1018.8 hPa ENE 8 km/h 12.9 km/h 83% 0 mm 0 W/m2
01:46 1.2 °C -1.3 °C 1018.5 hPa East 8 km/h 14.5 km/h 83% 0 mm 0 W/m2
01:52 1.3 °C -1.3 °C 1018.5 hPa ENE 6.4 km/h 9.7 km/h 83% 0 mm 0 W/m2
01:58 1.2 °C -1.3 °C 1018.5 hPa East 8 km/h 9.7 km/h 83% 0 mm 0 W/m2
02:04 1.2 °C -1.3 °C 1018.2 hPa East 6.4 km/h 9.7 km/h 83% 0 mm 0 W/m2
02:10 1.3 °C -1.3 °C 1018.2 hPa ESE 6.4 km/h 6.4 km/h 83% 0 mm 0 W/m2
02:16 1.3 °C -1.1 °C 1018.2 hPa ESE 6.4 km/h 8 km/h 84% 0 mm 0 W/m2
02:22 1.3 °C -1.1 °C 1017.8 hPa ESE 4.8 km/h 4.8 km/h 84% 0 mm 0 W/m2
02:28 1.3 °C -0.9 °C 1017.5 hPa East 4.8 km/h 11.3 km/h 85% 0 mm 0 W/m2
02:34 1.3 °C -0.9 °C 1017.5 hPa ENE 6.4 km/h 6.4 km/h 85% 0 mm 0 W/m2
02:40 1.3 °C -0.8 °C 1017.2 hPa East 4.8 km/h 4.8 km/h 86% 0 mm 0 W/m2
02:46 1.3 °C -0.8 °C 1016.8 hPa East 6.4 km/h 6.4 km/h 86% 0 mm 0 W/m2
02:52 1.3 °C -0.6 °C 1016.8 hPa NE 4.8 km/h 4.8 km/h 87% 0 mm 0 W/m2
02:58 1.4 °C -0.6 °C 1016.5 hPa SE 6.4 km/h 8 km/h 87% 0 mm 0 W/m2
03:04 1.4 °C -0.6 °C 1016.1 hPa ENE 6.4 km/h 11.3 km/h 87% 1.52 mm 0 W/m2
03:10 1.4 °C -0.5 °C 1015.8 hPa East 8 km/h 11.3 km/h 87% 1.52 mm 0 W/m2
03:16 1.5 °C -0.3 °C 1015.5 hPa ESE 8 km/h 11.3 km/h 88% 1.27 mm 0 W/m2
03:22 1.5 °C -0.3 °C 1015.5 hPa ENE 6.4 km/h 14.5 km/h 88% 0 mm 0 W/m2
03:28 1.5 °C -0.3 °C 1014.8 hPa East 8 km/h 14.5 km/h 88% 0 mm 0 W/m2
03:34 1.4 °C -0.3 °C 1014.4 hPa NE 8 km/h 11.3 km/h 88% 1.52 mm 0 W/m2
03:40 1.4 °C -0.3 °C 1013.8 hPa ESE 9.7 km/h 9.7 km/h 88% 1.52 mm 0 W/m2
03:46 1.4 °C -0.3 °C 1013.8 hPa East 11.3 km/h 11.3 km/h 88% 1.27 mm 0 W/m2
03:52 1.4 °C -0.2 °C 1014.4 hPa East 11.3 km/h 11.3 km/h 89% 0 mm 0 W/m2
03:58 1.4 °C -0.2 °C 1015.5 hPa SE 8 km/h 11.3 km/h 89% 0 mm 0 W/m2
04:04 1.4 °C -0.2 °C 1014.8 hPa ENE 6.4 km/h 6.4 km/h 89% 1.78 mm 0 W/m2
04:10 1.4 °C -0.2 °C 1014.8 hPa ESE 4.8 km/h 6.4 km/h 89% 2.03 mm 0 W/m2
04:16 1.4 °C -0.2 °C 1014.4 hPa ENE 6.4 km/h 14.5 km/h 89% 1.78 mm 0 W/m2
04:22 1.4 °C -0.2 °C 1014.4 hPa ESE 6.4 km/h 6.4 km/h 89% 1.02 mm 0 W/m2
04:28 1.3 °C -0.1 °C 1013.8 hPa East 6.4 km/h 8 km/h 90% 0 mm 0 W/m2
04:34 1.3 °C -0.1 °C 1013.8 hPa East 9.7 km/h 11.3 km/h 90% 0 mm 0 W/m2
04:40 1.3 °C -0.1 °C 1013.4 hPa SE 9.7 km/h 9.7 km/h 90% 1.02 mm 0 W/m2
04:46 1.3 °C -0.2 °C 1013.4 hPa East 8 km/h 14.5 km/h 90% 1.02 mm 0 W/m2
04:52 1.3 °C -0.2 °C 1013.1 hPa East 8 km/h 11.3 km/h 90% 1.02 mm 0 W/m2
04:58 1.3 °C -0.2 °C 1013.1 hPa NE 9.7 km/h 12.9 km/h 90% 0 mm 0 W/m2
05:04 1.2 °C -0.2 °C 1013.4 hPa ENE 8 km/h 11.3 km/h 90% 0 mm 0 W/m2
05:10 1.2 °C -0.2 °C 1013.1 hPa East 4.8 km/h 11.3 km/h 90% 0 mm 0 W/m2
05:16 1.2 °C -0.2 °C 1012.8 hPa ENE 6.4 km/h 16.1 km/h 90% 1.27 mm 0 W/m2
05:22 1.2 °C -0.2 °C 1012.8 hPa ESE 9.7 km/h 11.3 km/h 91% 2.54 mm 0 W/m2
05:28 1.1 °C -0.2 °C 1012.4 hPa ENE 9.7 km/h 16.1 km/h 91% 2.29 mm 0 W/m2
05:34 1.1 °C -0.2 °C 1012.1 hPa ENE 9.7 km/h 12.9 km/h 91% 2.54 mm 0 W/m2
05:40 0.9 °C -0.3 °C 1012.1 hPa ENE 8 km/h 8 km/h 91% 2.54 mm 0 W/m2
05:46 0.9 °C -0.4 °C 1011.7 hPa ENE 6.4 km/h 8 km/h 91% 3.3 mm 0 W/m2
05:52 0.9 °C -0.4 °C 1011.4 hPa ENE 8 km/h 12.9 km/h 91% 4.32 mm 0 W/m2
05:58 0.9 °C -0.4 °C 1011.1 hPa ENE 8 km/h 12.9 km/h 91% 2.03 mm 0 W/m2
06:04 0.9 °C -0.3 °C 1010.7 hPa ESE 9.7 km/h 14.5 km/h 92% 2.03 mm 0 W/m2
06:10 0.9 °C -0.3 °C 1010.7 hPa ENE 9.7 km/h 9.7 km/h 92% 1.78 mm 0 W/m2
06:16 0.9 °C -0.3 °C 1010.4 hPa East 9.7 km/h 16.1 km/h 92% 1.78 mm 0 W/m2
06:22 0.9 °C -0.3 °C 1010.4 hPa East 8 km/h 8 km/h 92% 1.78 mm 0 W/m2
06:28 0.9 °C -0.3 °C 1010 hPa East 9.7 km/h 9.7 km/h 92% 2.03 mm 0 W/m2
06:34 0.9 °C -0.3 °C 1010 hPa East 8 km/h 8 km/h 92% 2.03 mm 0 W/m2
06:40 0.9 °C -0.3 °C 1009.7 hPa SSE 8 km/h 8 km/h 92% 1.78 mm 0 W/m2
06:46 0.9 °C -0.2 °C 1009.4 hPa ENE 8 km/h 8 km/h 92% 1.52 mm 0 W/m2
06:52 0.9 °C -0.2 °C 1009.4 hPa East 6.4 km/h 12.9 km/h 92% 2.79 mm 0 W/m2
06:58 1 °C -0.2 °C 1009 hPa East 6.4 km/h 14.5 km/h 92% 2.29 mm 0 W/m2
07:04 1 °C -0.2 °C 1009 hPa East 8 km/h 8 km/h 92% 1.27 mm 0 W/m2
07:10 1.1 °C -0.1 °C 1009 hPa East 8 km/h 8 km/h 92% 1.27 mm 0 W/m2
07:16 1.2 °C 0.2 °C 1008.7 hPa East 8 km/h 11.3 km/h 93% 1.78 mm 0 W/m2
07:22 1.2 °C 0.2 °C 1008.7 hPa SE 6.4 km/h 11.3 km/h 93% 1.52 mm 7 W/m2
07:28 1.2 °C 0.2 °C 1009 hPa NE 6.4 km/h 12.9 km/h 93% 1.27 mm 5 W/m2
07:34 1.2 °C 0.2 °C 1008.7 hPa ENE 6.4 km/h 8 km/h 93% 2.29 mm 7 W/m2
07:40 1.3 °C 0.3 °C 1008.7 hPa ENE 6.4 km/h 6.4 km/h 93% 4.06 mm 5 W/m2
07:46 1.4 °C 0.4 °C 1009 hPa East 6.4 km/h 6.4 km/h 93% 3.3 mm 9 W/m2
07:52 1.5 °C 0.5 °C 1009.4 hPa East 6.4 km/h 8 km/h 93% 4.06 mm 5 W/m2
07:58 1.6 °C 0.6 °C 1009.7 hPa East 6.4 km/h 9.7 km/h 93% 3.3 mm 5 W/m2
08:04 1.8 °C 0.8 °C 1009.4 hPa ENE 6.4 km/h 11.3 km/h 93% 1.52 mm 5 W/m2
08:10 1.9 °C 0.9 °C 1009.7 hPa ENE 4.8 km/h 6.4 km/h 93% 1.27 mm 7 W/m2
08:16 2.1 °C 1.1 °C 1009 hPa East 3.2 km/h 6.4 km/h 93% 1.27 mm 9 W/m2
08:22 2 °C 1 °C 1009 hPa East 4.8 km/h 14.5 km/h 93% 1.02 mm 9 W/m2
08:28 1.9 °C 0.9 °C 1008.7 hPa ESE 8 km/h 14.5 km/h 93% 0 mm 18 W/m2
08:34 2 °C 1 °C 1008.7 hPa NE 6.4 km/h 8 km/h 93% 0 mm 18 W/m2
08:40 2.1 °C 1.1 °C 1008.7 hPa East 3.2 km/h 4.8 km/h 93% 0 mm 18 W/m2
08:46 2.3 °C 1.3 °C 1008.4 hPa ENE 3.2 km/h 4.8 km/h 93% 0 mm 18 W/m2
08:52 2.6 °C 1.6 °C 1008.7 hPa East 3.2 km/h 4.8 km/h 93% 0 mm 21 W/m2
08:58 2.7 °C 1.7 °C 1008.4 hPa NE 1.6 km/h 4.8 km/h 93% 0 mm 26 W/m2
09:04 2.7 °C 1.7 °C 1008.4 hPa ENE 3.2 km/h 6.4 km/h 93% 0 mm 42 W/m2
09:10 2.6 °C 1.6 °C 1008 hPa East 4.8 km/h 4.8 km/h 93% 0 mm 54 W/m2
09:16 2.7 °C 1.7 °C 1008 hPa East 4.8 km/h 8 km/h 93% 0 mm 42 W/m2
09:22 2.9 °C 1.9 °C 1008 hPa East 4.8 km/h 8 km/h 93% 0 mm 25 W/m2
09:28 3.1 °C 2.1 °C 1008.4 hPa ENE 3.2 km/h 8 km/h 93% 0 mm 16 W/m2
09:34 3.5 °C 2.5 °C 1008.4 hPa SE 1.6 km/h 6.4 km/h 93% 0 mm 28 W/m2
09:40 4 °C 2.9 °C 1008.4 hPa SE 3.2 km/h 3.2 km/h 93% 0 mm 33 W/m2
09:46 4.7 °C 3.7 °C 1008.4 hPa SE 4.8 km/h 4.8 km/h 93% 0 mm 42 W/m2
09:52 5.5 °C 4.4 °C 1008.4 hPa SSE 6.4 km/h 8 km/h 93% 0 mm 49 W/m2
09:58 5.8 °C 4.7 °C 1008 hPa SE 6.4 km/h 8 km/h 93% 0 mm 58 W/m2
10:04 6 °C 4.9 °C 1008 hPa SE 6.4 km/h 16.1 km/h 93% 0 mm 35 W/m2
10:10 6.2 °C 5 °C 1008 hPa SSE 6.4 km/h 6.4 km/h 92% 0 mm 32 W/m2
10:16 6.3 °C 4.9 °C 1008 hPa SE 6.4 km/h 8 km/h 91% 0 mm 35 W/m2
10:22 6.5 °C 5 °C 1008 hPa SE 8 km/h 20.9 km/h 90% 0 mm 18 W/m2
10:28 6.9 °C 5.1 °C 1008 hPa SE 9.7 km/h 20.9 km/h 88% 0 mm 23 W/m2
10:34 7.1 °C 4.9 °C 1008 hPa ESE 9.7 km/h 11.3 km/h 86% 0 mm 21 W/m2
10:40 7.2 °C 4.9 °C 1008 hPa SSE 9.7 km/h 9.7 km/h 85% 0 mm 23 W/m2
10:46 7.3 °C 4.8 °C 1008 hPa SSE 8 km/h 9.7 km/h 84% 0 mm 26 W/m2
10:52 7.4 °C 4.7 °C 1008 hPa SSE 8 km/h 11.3 km/h 83% 0 mm 32 W/m2
10:58 7.4 °C 4.7 °C 1008 hPa SE 9.7 km/h 12.9 km/h 83% 0 mm 30 W/m2
11:04 7.6 °C 4.7 °C 1008 hPa SE 9.7 km/h 9.7 km/h 82% 0 mm 44 W/m2
11:10 7.6 °C 4.7 °C 1008 hPa South 6.4 km/h 6.4 km/h 82% 0 mm 37 W/m2
11:16 7.6 °C 4.7 °C 1008 hPa SSE 6.4 km/h 14.5 km/h 82% 0 mm 49 W/m2
11:22 7.7 °C 4.7 °C 1008 hPa South 6.4 km/h 14.5 km/h 81% 0 mm 33 W/m2
11:28 7.7 °C 4.7 °C 1008 hPa SSE 6.4 km/h 16.1 km/h 81% 0 mm 32 W/m2
11:34 7.9 °C 4.7 °C 1008 hPa SSE 11.3 km/h 19.3 km/h 80% 0 mm 39 W/m2
11:40 7.9 °C 4.7 °C 1008.4 hPa SSE 11.3 km/h 11.3 km/h 80% 0 mm 42 W/m2
11:46 8.1 °C 4.6 °C 1008.4 hPa SSE 12.9 km/h 27.4 km/h 79% 0 mm 33 W/m2
11:52 8 °C 4.8 °C 1008.4 hPa SSE 12.9 km/h 12.9 km/h 80% 0 mm 25 W/m2
11:59 8.1 °C 4.6 °C 1008.4 hPa South 9.7 km/h 20.9 km/h 79% 0 mm 37 W/m2
12:04 8.1 °C 4.7 °C 1008.4 hPa ESE 9.7 km/h 9.7 km/h 79% 0 mm 56 W/m2
12:10 8.1 °C 4.9 °C 1009 hPa ESE 4.8 km/h 4.8 km/h 80% 0 mm 33 W/m2
12:16 8.1 °C 4.8 °C 1009 hPa SSE 1.6 km/h 8 km/h 80% 0 mm 37 W/m2
12:22 8.1 °C 4.8 °C 1009.4 hPa SSW 3.2 km/h 3.2 km/h 80% 0 mm 42 W/m2
12:28 7.9 °C 5.1 °C 1009.4 hPa SSW 1.6 km/h 4.8 km/h 82% 0 mm 65 W/m2
12:34 7.9 °C 5.2 °C 1009.7 hPa SE 3.2 km/h 8 km/h 83% 0 mm 67 W/m2
12:40 7.9 °C 5.3 °C 1009.7 hPa SSE 3.2 km/h 9.7 km/h 84% 0 mm 53 W/m2
12:46 7.9 °C 5.5 °C 1009.7 hPa SSW 4.8 km/h 9.7 km/h 85% 0 mm 53 W/m2
12:52 7.8 °C 5.6 °C 1009.7 hPa SE 4.8 km/h 6.4 km/h 86% 0 mm 53 W/m2
12:58 7.7 °C 5.5 °C 1009.7 hPa SSE 3.2 km/h 6.4 km/h 86% 0 mm 39 W/m2
13:04 7.7 °C 5.5 °C 1009.4 hPa SSE 1.6 km/h 3.2 km/h 86% 0 mm 79 W/m2
13:10 7.7 °C 5.7 °C 1009 hPa SSE 1.6 km/h 1.6 km/h 87% 0 mm 120 W/m2
13:16 7.8 °C 5.9 °C 1008.7 hPa ESE 1.6 km/h 6.4 km/h 88% 0 mm 102 W/m2
13:22 6.9 °C 5.1 °C 1008.4 hPa ENE 4.8 km/h 4.8 km/h 88% 0 mm 141 W/m2
13:28 6.8 °C 5.1 °C 1008.7 hPa ESE 3.2 km/h 4.8 km/h 89% 0 mm 70 W/m2
13:34 6.7 °C 5.2 °C 1008.7 hPa NE 3.2 km/h 8 km/h 90% 0 mm 72 W/m2
13:40 6.8 °C 5.3 °C 1008.7 hPa ENE 4.8 km/h 4.8 km/h 90% 0 mm 105 W/m2
13:46 6.9 °C 5.4 °C 1008.7 hPa ENE 3.2 km/h 4.8 km/h 90% 0 mm 148 W/m2
13:52 7.1 °C 5.7 °C 1008.7 hPa ENE 3.2 km/h 6.4 km/h 91% 0 mm 171 W/m2
13:58 7.1 °C 5.7 °C 1008.7 hPa ENE 4.8 km/h 6.4 km/h 91% 0 mm 267 W/m2
14:04 7.2 °C 5.8 °C 1008.7 hPa ENE 4.8 km/h 8 km/h 91% 0 mm 214 W/m2
14:10 7.3 °C 5.9 °C 1008.4 hPa ENE 4.8 km/h 8 km/h 91% 0 mm 199 W/m2
14:16 7.4 °C 6 °C 1008.4 hPa NE 4.8 km/h 8 km/h 91% 0 mm 308 W/m2
14:22 7.6 °C 6.2 °C 1008.4 hPa ENE 3.2 km/h 4.8 km/h 91% 0 mm 229 W/m2
14:28 7.7 °C 6.3 °C 1008.4 hPa ENE 3.2 km/h 4.8 km/h 91% 0 mm 214 W/m2
14:34 8 °C 6.6 °C 1008.7 hPa East 3.2 km/h 4.8 km/h 91% 0 mm 294 W/m2
14:40 8.1 °C 6.5 °C 1008.4 hPa East 3.2 km/h 3.2 km/h 90% 0 mm 197 W/m2
14:46 8.6 °C 6.8 °C 1008.7 hPa East 3.2 km/h 4.8 km/h 89% 0 mm 237 W/m2
14:52 9.4 °C 7.7 °C 1008.7 hPa East 1.6 km/h 4.8 km/h 89% 0 mm 427 W/m2
14:58 9.6 °C 7.3 °C 1009 hPa ENE 3.2 km/h 8 km/h 86% 0 mm 165 W/m2
15:04 9.3 °C 6.9 °C 1009 hPa ENE 3.2 km/h 3.2 km/h 85% 0 mm 167 W/m2
15:10 9 °C 6.6 °C 1009 hPa ENE 1.6 km/h 4.8 km/h 85% 0 mm 158 W/m2
15:16 8.8 °C 6.6 °C 1009 hPa ENE 3.2 km/h 6.4 km/h 86% 0 mm 146 W/m2
15:22 8.7 °C 6.5 °C 1009 hPa ENE 3.2 km/h 3.2 km/h 86% 0 mm 163 W/m2
15:28 8.6 °C 6.4 °C 1009 hPa ENE 3.2 km/h 4.8 km/h 86% 0 mm 155 W/m2
15:34 8.6 °C 6.3 °C 1009 hPa ENE 3.2 km/h 6.4 km/h 86% 0 mm 151 W/m2
15:40 8.7 °C 6.6 °C 1009 hPa ENE 1.6 km/h 3.2 km/h 87% 0 mm 132 W/m2
15:46 8.8 °C 6.7 °C 1009 hPa ENE 1.6 km/h 3.2 km/h 87% 0 mm 120 W/m2
15:52 8.8 °C 6.8 °C 1009 hPa ENE 1.6 km/h 1.6 km/h 87% 0 mm 144 W/m2
15:58 8.8 °C 6.7 °C 1009 hPa ENE 3.2 km/h 4.8 km/h 87% 0 mm 283 W/m2
16:04 8.6 °C 6.6 °C 1009 hPa ENE 3.2 km/h 6.4 km/h 87% 0 mm 116 W/m2
16:10 8.6 °C 6.5 °C 1009 hPa ENE 1.6 km/h 3.2 km/h 87% 0 mm 79 W/m2
16:16 8.4 °C 6.3 °C 1009.4 hPa ENE 3.2 km/h 4.8 km/h 87% 0 mm 127 W/m2
16:22 8.2 °C 6.2 °C 1009.4 hPa ENE 3.2 km/h 3.2 km/h 87% 0 mm 100 W/m2
16:28 8.2 °C 6.2 °C 1009.4 hPa Calm   3.2 km/h 87% 0 mm 97 W/m2
16:34 8.2 °C 6.1 °C 1009.4 hPa Calm   3.2 km/h 87% 0 mm 98 W/m2
16:40 8.1 °C 6.1 °C 1009.7 hPa Calm     87% 0 mm 83 W/m2
16:46 7.9 °C 6 °C 1009.7 hPa Calm   1.6 km/h 88% 0 mm 69 W/m2
16:52 7.8 °C 5.9 °C 1010 hPa Calm   1.6 km/h 88% 0 mm 51 W/m2
16:58 7.8 °C 5.9 °C 1010 hPa ENE 1.6 km/h 3.2 km/h 88% 0 mm 65 W/m2
17:04 7.7 °C 5.8 °C 1009.7 hPa ENE 1.6 km/h 1.6 km/h 88% 0 mm 62 W/m2
17:10 7.7 °C 5.9 °C 1010 hPa Calm   1.6 km/h 89% 0 mm 56 W/m2
17:16 7.4 °C 5.6 °C 1010 hPa ENE 1.6 km/h 1.6 km/h 88% 0 mm 33 W/m2
17:22 7.1 °C 5.3 °C 1010 hPa ENE 1.6 km/h 1.6 km/h 88% 0 mm 25 W/m2
17:28 6.9 °C 5.2 °C 1010 hPa Calm   1.6 km/h 89% 0 mm 25 W/m2
17:34 6.7 °C 5.1 °C 1010 hPa Calm     89% 0 mm 21 W/m2
17:40 6.4 °C 4.8 °C 1010 hPa Calm     89% 0 mm 11 W/m2
17:46 6.1 °C 4.4 °C 1010 hPa Calm     89% 0 mm 5 W/m2
17:52 5.8 °C 4.1 °C 1010.4 hPa Calm     89% 0 mm 0 W/m2
17:58 5.5 °C 3.8 °C 1010.7 hPa Calm     89% 0 mm 0 W/m2
18:04 5.2 °C 3.5 °C 1010.7 hPa Calm     89% 0 mm 0 W/m2
18:10 4.9 °C 3.2 °C 1010.7 hPa Calm     89% 0 mm 0 W/m2
18:16 4.6 °C 2.9 °C 1011.1 hPa Calm     89% 0 mm 0 W/m2
18:22 4.4 °C 2.9 °C 1011.1 hPa Calm     90% 0 mm 0 W/m2
18:28 4.2 °C 2.7 °C 1011.4 hPa Calm     90% 0 mm 0 W/m2
18:34 4.1 °C 2.6 °C 1011.4 hPa Calm     90% 0 mm 0 W/m2
18:40 3.9 °C 2.4 °C 1011.7 hPa Calm     90% 0 mm 0 W/m2
18:46 3.8 °C 2.3 °C 1011.7 hPa Calm     90% 0 mm 0 W/m2
18:52 3.6 °C 2.1 °C 1012.1 hPa Calm     90% 0 mm 0 W/m2
18:58 3.5 °C 2.2 °C 1012.1 hPa Calm   3.2 km/h 91% 0 mm 0 W/m2
19:04 3.4 °C 1.9 °C 1012.1 hPa Calm     90% 0 mm 0 W/m2
19:10 3.3 °C 1.9 °C 1012.1 hPa Calm     91% 0 mm 0 W/m2
19:16 3.2 °C 1.9 °C 1012.1 hPa Calm     91% 0 mm 0 W/m2
19:22 3.2 °C 1.8 °C 1012.1 hPa ENE 1.6 km/h 1.6 km/h 91% 0 mm 0 W/m2
19:28 3.1 °C 1.8 °C 1012.1 hPa Calm   1.6 km/h 91% 0 mm 0 W/m2
19:34 3.1 °C 1.7 °C 1012.1 hPa Calm     91% 0 mm 0 W/m2
19:40 2.9 °C 1.6 °C 1012.4 hPa Calm     91% 0 mm 0 W/m2
19:46 2.9 °C 1.6 °C 1012.4 hPa Calm     91% 0 mm 0 W/m2
19:52 2.8 °C 1.7 °C 1012.8 hPa Calm     92% 0 mm 0 W/m2
19:58 3 °C 1.8 °C 1012.8 hPa Calm     92% 0 mm 0 W/m2
20:04 3.2 °C 2 °C 1012.8 hPa Calm     92% 0 mm 0 W/m2
20:10 3.3 °C 2.1 °C 1012.4 hPa Calm     92% 0 mm 0 W/m2
20:16 3.3 °C 2.2 °C 1012.8 hPa Calm     92% 0 mm 0 W/m2
20:22 3.3 °C 2.1 °C 1012.8 hPa Calm     92% 0 mm 0 W/m2
20:28 3.2 °C 2 °C 1013.1 hPa Calm     92% 0 mm 0 W/m2
20:34 3.1 °C 1.9 °C 1013.1 hPa Calm     92% 0 mm 0 W/m2
20:40 2.9 °C 1.8 °C 1013.4 hPa Calm     92% 0 mm 0 W/m2
20:46 2.7 °C 1.6 °C 1013.8 hPa Calm     92% 0 mm 0 W/m2
20:52 2.6 °C 1.4 °C 1013.8 hPa Calm     92% 0 mm 0 W/m2
20:58 2.4 °C 1.3 °C 1013.8 hPa Calm     92% 0 mm 0 W/m2
21:04 2.3 °C 1.1 °C 1013.8 hPa Calm     92% 0 mm 0 W/m2
21:10 2.3 °C 1.2 °C 1013.8 hPa Calm     92% 0 mm 0 W/m2
21:16 2.4 °C 1.3 °C 1013.8 hPa Calm     92% 0 mm 0 W/m2
21:22 2.8 °C 1.8 °C 1014.1 hPa NW 1.6 km/h 6.4 km/h 93% 0 mm 0 W/m2
21:28 3.2 °C 2 °C 1014.1 hPa WNW 3.2 km/h 6.4 km/h 92% 0 mm 0 W/m2
21:34 3.4 °C 2.2 °C 1014.1 hPa WNW 1.6 km/h 3.2 km/h 92% 0 mm 0 W/m2
21:40 3.6 °C 2.3 °C 1014.1 hPa WNW 1.6 km/h 1.6 km/h 91% 0 mm 0 W/m2
21:46 3.6 °C 2.1 °C 1014.1 hPa Calm   1.6 km/h 90% 0 mm 0 W/m2
21:52 3.5 °C 1.7 °C 1014.4 hPa Calm     88% 0 mm 0 W/m2
21:58 3.7 °C 1.6 °C 1014.1 hPa WNW 1.6 km/h 1.6 km/h 86% 0 mm 0 W/m2
22:04 4 °C 1.4 °C 1014.4 hPa WNW 1.6 km/h 3.2 km/h 83% 0 mm 0 W/m2
22:10 4.1 °C 0.9 °C 1014.4 hPa WNW 1.6 km/h 1.6 km/h 80% 0 mm 0 W/m2
22:16 4.3 °C 0.8 °C 1014.4 hPa WNW 1.6 km/h 1.6 km/h 78% 0 mm 0 W/m2
22:22 4.3 °C 0.4 °C 1014.8 hPa WNW 1.6 km/h 3.2 km/h 76% 0 mm 0 W/m2
22:28 4.4 °C 0.2 °C 1014.8 hPa NW 1.6 km/h 6.4 km/h 74% 0 mm 0 W/m2
22:34 4.4 °C -0.1 °C 1014.8 hPa WNW 1.6 km/h 1.6 km/h 73% 0 mm 0 W/m2
22:40 4.3 °C -0.1 °C 1015.1 hPa Calm   1.6 km/h 73% 0 mm 0 W/m2
22:46 4.2 °C -0.2 °C 1014.8 hPa WNW 1.6 km/h 4.8 km/h 73% 0 mm 0 W/m2
22:52 4.1 °C -0.1 °C 1015.1 hPa WNW 1.6 km/h 4.8 km/h 74% 0 mm 0 W/m2
22:58 4.1 °C -0.2 °C 1014.8 hPa Calm   4.8 km/h 74% 0 mm 0 W/m2
23:04 3.9 °C -0.3 °C 1014.8 hPa WNW 1.6 km/h 3.2 km/h 74% 0 mm 0 W/m2
23:10 3.9 °C -0.3 °C 1014.8 hPa WNW 1.6 km/h 1.6 km/h 74% 0 mm 0 W/m2
23:16 4.1 °C -0.2 °C 1014.8 hPa WSW 3.2 km/h 8 km/h 74% 0 mm 0 W/m2
23:22 4.2 °C -0.2 °C 1015.1 hPa West 4.8 km/h 4.8 km/h 73% 0 mm 0 W/m2
23:28 4.3 °C -0.1 °C 1015.1 hPa WNW 4.8 km/h 4.8 km/h 73% 0 mm 0 W/m2
23:34 4.4 °C -0.1 °C 1015.5 hPa WNW 4.8 km/h 8 km/h 73% 0 mm 0 W/m2
23:40 4.4 °C -0.2 °C 1015.5 hPa WNW 4.8 km/h 4.8 km/h 72% 0 mm 0 W/m2
23:46 4.4 °C -0.2 °C 1015.5 hPa WNW 4.8 km/h 4.8 km/h 72% 0 mm 0 W/m2
23:52 4.3 °C -0.3 °C 1015.5 hPa WSW 3.2 km/h 3.2 km/h 72% 0 mm 0 W/m2
23:58 4.3 °C -0.3 °C 1015.5 hPa WSW 3.2 km/h 4.8 km/h 72% 0 mm 0 W/m2
Country Meadow, Clay, NY, USA
Compliments of Weather Underground - 2 mb